| time (UTC) | temp F | wind direction | speed knots | gust knots | rain 1hr in | rain 24hr in | rain mn in | humidity % | barometer mb |
| 20260505195049 | 47 | 354 | 0.0 | 0.0 | 0.00 | 0.53 | 0.53 | 1 | 1011.2 |
| 20260505194533 | 46 | 354 | 0.0 | 0.0 | 0.00 | 0.53 | 0.53 | 1 | 1011.3 |
| 20260505194003 | 46 | 354 | 0.0 | 0.0 | 0.00 | 0.53 | 0.53 | 1 | 1011.4 |
| 20260505193544 | 47 | 354 | 0.0 | 0.9 | 0.00 | 0.53 | 0.53 | 1 | 1011.5 |
| 20260505193033 | 46 | 354 | 0.0 | 0.9 | 0.00 | 0.53 | 0.53 | 1 | 1011.4 |
| 20260505192558 | 46 | 354 | 0.0 | 0.0 | 0.00 | 0.53 | 0.53 | 1 | 1011.2 |
| 20260505192034 | 46 | 354 | 0.0 | 0.0 | 0.00 | 0.53 | 0.53 | 1 | 1011.0 |
| 20260505191511 | 46 | 354 | 0.0 | 0.0 | 0.00 | 0.53 | 0.53 | 1 | 1011.1 |
| 20260505191052 | 46 | 354 | 0.0 | 0.0 | 0.00 | 0.53 | 0.53 | 1 | 1011.1 |
| 20260505190527 | 46 | 354 | 0.0 | 0.0 | 0.00 | 0.53 | 0.53 | 1 | 1011.2 |
| 20260505190004 | 46 | 354 | 0.0 | 0.0 | 0.00 | 0.53 | 0.53 | 1 | 1011.2 |
| 20260505185543 | 46 | 354 | 0.0 | 0.0 | 0.00 | 0.53 | 0.53 | 1 | 1011.2 |
| 20260505185019 | 46 | 354 | 0.0 | 0.0 | 0.00 | 0.53 | 0.53 | 1 | 1011.3 |
| 20260505184608 | 46 | 354 | 0.0 | 0.9 | 0.00 | 0.53 | 0.53 | 1 | 1011.4 |
| 20260505184036 | 46 | 354 | 0.0 | 0.9 | 0.00 | 0.53 | 0.53 | 1 | 1011.4 |
| 20260505183512 | 46 | 354 | 0.0 | 0.0 | 0.00 | 0.53 | 0.53 | 1 | 1011.5 |
| 20260505183052 | 46 | 354 | 0.0 | 0.9 | 0.00 | 0.53 | 0.53 | 1 | 1011.3 |
| 20260505182528 | 45 | 354 | 0.0 | 1.7 | 0.00 | 0.53 | 0.53 | 1 | 1011.7 |
| 20260505182005 | 45 | 354 | 0.0 | 1.7 | 0.00 | 0.53 | 0.53 | 1 | 1011.5 |
| 20260505181546 | 45 | 339 | 0.0 | 2.6 | 0.01 | 0.53 | 0.53 | 1 | 1011.7 |
| 20260505181023 | 45 | 339 | 0.0 | 2.6 | 0.01 | 0.53 | 0.53 | 1 | 1011.8 |
| 20260505180603 | 45 | 331 | 0.0 | 1.7 | 0.01 | 0.53 | 0.53 | 1 | 1011.9 |
| 20260505180051 | 45 | 354 | 0.0 | 3.5 | 0.01 | 0.53 | 0.53 | 1 | 1012.0 |
| 20260505175517 | 45 | 347 | 0.9 | 3.5 | 0.03 | 0.53 | 0.53 | 1 | 1012.0 |
| 20260505175100 | 45 | 347 | 0.9 | 1.7 | 0.03 | 0.53 | 0.53 | 1 | 1012.1 |
| 20260505174540 | 45 | 342 | 0.0 | 1.7 | 0.05 | 0.53 | 0.53 | 1 | 1011.8 |
| 20260505174011 | 46 | 283 | 0.0 | 0.9 | 0.06 | 0.53 | 0.53 | 1 | 1011.5 |
| 20260505173551 | 45 | 184 | 0.0 | 0.9 | 0.06 | 0.53 | 0.53 | 1 | 1011.1 |
| 20260505173027 | 45 | 179 | 0.0 | 1.7 | 0.06 | 0.53 | 0.53 | 1 | 1011.5 |
| 20260505172503 | 45 | 181 | 0.0 | 1.7 | 0.06 | 0.53 | 0.53 | 1 | 1011.8 |
| 20260505172043 | 46 | 167 | 0.0 | 0.9 | 0.06 | 0.53 | 0.53 | 1 | 1011.7 |
| 20260505171519 | 46 | 232 | 0.0 | 1.7 | 0.05 | 0.52 | 0.52 | 1 | 1011.6 |
| 20260505171103 | 46 | 212 | 0.0 | 0.9 | 0.06 | 0.52 | 0.52 | 1 | 1011.8 |
| 20260505170536 | 46 | 5 | 0.0 | 0.9 | 0.06 | 0.52 | 0.52 | 1 | 1011.9 |
| 20260505170023 | 46 | 5 | 0.0 | 3.5 | 0.06 | 0.51 | 0.51 | 1 | 1011.7 |
| 20260505165553 | 46 | 5 | 0.0 | 3.5 | 0.06 | 0.50 | 0.50 | 1 | 1011.6 |
| 20260505165029 | 46 | 310 | 0.0 | 3.5 | 0.05 | 0.49 | 0.49 | 1 | 1011.2 |
| 20260505164505 | 46 | 356 | 0.9 | 2.6 | 0.04 | 0.48 | 0.48 | 1 | 1011.8 |
| 20260505164045 | 46 | 1 | 0.0 | 2.6 | 0.03 | 0.47 | 0.47 | 1 | 1012.1 |
| 20260505163521 | 46 | 31 | 0.9 | 3.5 | 0.03 | 0.47 | 0.47 | 1 | 1011.9 |
| 20260505163101 | 46 | 17 | 0.9 | 3.5 | 0.03 | 0.47 | 0.47 | 1 | 1012.0 |
| 20260505162536 | 46 | 359 | 0.0 | 4.3 | 0.03 | 0.47 | 0.47 | 1 | 1012.0 |
| 20260505162013 | 46 | 8 | 0.9 | 4.3 | 0.03 | 0.47 | 0.47 | 1 | 1012.0 |
| 20260505161601 | 46 | 333 | 0.0 | 4.3 | 0.03 | 0.47 | 0.47 | 1 | 1011.8 |
| 20260505161032 | 46 | 9 | 1.7 | 4.3 | 0.02 | 0.46 | 0.46 | 1 | 1011.7 |
| 20260505160505 | 46 | 353 | 0.9 | 4.3 | 0.02 | 0.46 | 0.46 | 1 | 1011.7 |
| 20260505153042 | 47 | 327 | 2.6 | 6.1 | 0.03 | 0.44 | 0.44 | 1 | 1011.0 |
| 20260505152510 | 47 | 18 | 0.9 | 6.1 | 0.04 | 0.44 | 0.44 | 1 | 1011.2 |
| 20260505152049 | 47 | 359 | 1.7 | 4.3 | 0.05 | 0.44 | 0.44 | 1 | 1011.4 |
| 20260505151529 | 47 | 336 | 1.7 | 4.3 | 0.05 | 0.44 | 0.44 | 1 | 1011.2 |
| 20260505151001 | 48 | 352 | 0.0 | 3.5 | 0.05 | 0.44 | 0.44 | 1 | 1011.2 |
| 20260505150542 | 47 | 313 | 0.0 | 3.5 | 0.06 | 0.44 | 0.44 | 1 | 1011.2 |
| 20260505140518 | 46 | 353 | 0.0 | 5.2 | 0.03 | 0.38 | 0.38 | 1 | 1011.3 |
| 20260505124519 | 48 | 11 | 0.9 | 4.3 | 0.00 | 0.34 | 0.34 | 1 | 1008.6 |
| 20260505124059 | 48 | 27 | 0.0 | 3.5 | 0.00 | 0.34 | 0.34 | 1 | 1008.5 |
| 20260505123535 | 48 | 38 | 0.9 | 3.5 | 0.00 | 0.34 | 0.34 | 1 | 1009.1 |
| 20260505123011 | 48 | 343 | 0.0 | 3.5 | 0.00 | 0.34 | 0.34 | 1 | 1009.0 |
| 20260505122552 | 48 | 330 | 0.9 | 3.5 | 0.00 | 0.34 | 0.34 | 1 | 1008.9 |
| 20260505122026 | 48 | 333 | 0.9 | 3.5 | 0.00 | 0.34 | 0.34 | 1 | 1008.7 |
| 20260505121502 | 48 | 326 | 0.0 | 4.3 | 0.00 | 0.34 | 0.34 | 1 | 1008.7 |
| 20260505121042 | 48 | 355 | 0.0 | 4.3 | 0.00 | 0.34 | 0.34 | 1 | 1008.6 |
| 20260505120521 | 48 | 14 | 0.9 | 3.5 | 0.00 | 0.34 | 0.34 | 1 | 1008.5 |
| 20260505120059 | 48 | 339 | 0.9 | 1.7 | 0.00 | 0.34 | 0.34 | 1 | 1008.3 |
| 20260505115535 | 48 | 2 | 0.0 | 1.7 | 0.00 | 0.34 | 0.34 | 1 | 1008.5 |
| 20260505115011 | 48 | 338 | 0.0 | 1.7 | 0.00 | 0.34 | 0.34 | 1 | 1008.8 |
| 20260505114611 | 48 | 354 | 0.0 | 1.7 | 0.00 | 0.34 | 0.34 | 1 | 1008.7 |
| 20260505114028 | 48 | 357 | 0.0 | 0.9 | 0.00 | 0.34 | 0.34 | 1 | 1008.5 |
| 20260505113504 | 48 | 357 | 0.0 | 3.5 | 0.00 | 0.34 | 0.34 | 1 | 1008.3 |
| 20260505113045 | 47 | 357 | 0.0 | 3.5 | 0.00 | 0.34 | 0.34 | 1 | 1008.0 |
| 20260505112520 | 47 | 338 | 0.9 | 3.5 | 0.00 | 0.34 | 0.34 | 1 | 1008.0 |
| 20260505112008 | 47 | 350 | 0.9 | 4.3 | 0.00 | 0.34 | 0.34 | 1 | 1007.8 |
| 20260505111601 | 48 | 326 | 0.0 | 7.0 | 0.00 | 0.34 | 0.34 | 1 | 1007.8 |
| 20260505111022 | 48 | 1 | 0.0 | 7.0 | 0.00 | 0.34 | 0.34 | 1 | 1007.8 |
| 20260505110604 | 48 | 333 | 0.9 | 5.2 | 0.00 | 0.34 | 0.34 | 1 | 1007.9 |
| 20260505102041 | 47 | 38 | 2.6 | 6.1 | 0.00 | 0.34 | 0.34 | 1 | 1008.0 |
| 20260505101518 | 47 | 348 | 2.6 | 5.2 | 0.00 | 0.34 | 0.34 | 1 | 1008.0 |
| 20260505101059 | 47 | 353 | 1.7 | 4.3 | 0.00 | 0.34 | 0.34 | 1 | 1007.8 |
| 20260505100535 | 47 | 328 | 1.7 | 4.3 | 0.00 | 0.34 | 0.34 | 1 | 1007.9 |
| 20260505100011 | 47 | 27 | 0.9 | 5.2 | 0.00 | 0.34 | 0.34 | 1 | 1007.8 |
| 20260505095552 | 47 | 346 | 1.7 | 6.1 | 0.00 | 0.34 | 0.34 | 1 | 1007.7 |
| 20260505095027 | 47 | 32 | 2.6 | 6.1 | 0.00 | 0.34 | 0.34 | 1 | 1007.5 |
| 20260505094502 | 47 | 340 | 1.7 | 5.2 | 0.00 | 0.34 | 0.34 | 1 | 1007.5 |
| 20260505094045 | 47 | 333 | 0.9 | 4.3 | 0.00 | 0.34 | 0.34 | 1 | 1007.5 |
| 20260505093520 | 47 | 341 | 0.9 | 5.2 | 0.00 | 0.34 | 0.34 | 1 | 1007.2 |
| 20260505093101 | 47 | 2 | 0.9 | 5.2 | 0.01 | 0.34 | 0.34 | 1 | 1007.1 |
| 20260505092537 | 47 | 339 | 0.9 | 5.2 | 0.05 | 0.34 | 0.34 | 1 | 1007.0 |
| 20260505092013 | 47 | 354 | 1.7 | 6.1 | 0.07 | 0.34 | 0.34 | 1 | 1007.3 |
| 20260505091554 | 47 | 29 | 0.9 | 6.1 | 0.09 | 0.34 | 0.34 | 1 | 1007.3 |
| 20260505091029 | 47 | 20 | 0.0 | 7.0 | 0.11 | 0.34 | 0.34 | 1 | 1007.0 |
| 20260505090506 | 47 | 10 | 1.7 | 7.0 | 0.12 | 0.34 | 0.34 | 1 | 1006.5 |
| 20260505090053 | 47 | 346 | 0.9 | 7.0 | 0.13 | 0.34 | 0.34 | 1 | 1006.2 |
| 20260505085526 | 47 | 22 | 3.5 | 10.4 | 0.15 | 0.34 | 0.34 | 1 | 1005.4 |
| 20260505085001 | 47 | 360 | 2.6 | 13.0 | 0.15 | 0.34 | 0.34 | 1 | 1004.3 |
| 20260505084542 | 47 | 331 | 3.5 | 13.0 | 0.16 | 0.34 | 0.34 | 1 | 1003.7 |
| 20260505084018 | 48 | 326 | 3.5 | 7.8 | 0.16 | 0.34 | 0.34 | 1 | 1003.4 |
| 20260505083559 | 48 | 305 | 3.5 | 7.8 | 0.17 | 0.34 | 0.34 | 1 | 1004.4 |
| 20260505083044 | 48 | 326 | 0.9 | 4.3 | 0.17 | 0.33 | 0.33 | 1 | 1006.5 |
| 20260505082510 | 49 | 18 | 0.0 | 2.6 | 0.13 | 0.28 | 0.28 | 1 | 1007.7 |
| 20260505082051 | 49 | 319 | 0.9 | 2.6 | 0.11 | 0.27 | 0.27 | 1 | 1007.8 |
| 20260505081533 | 49 | 337 | 0.0 | 1.7 | 0.08 | 0.24 | 0.24 | 1 | 1007.5 |
| 20260505081009 | 50 | 318 | 0.0 | 0.0 | 0.08 | 0.23 | 0.23 | 1 | 1008.1 |
| 20260505080546 | 50 | 318 | 0.0 | 0.0 | 0.07 | 0.22 | 0.22 | 1 | 1008.5 |
| 20260505080033 | 50 | 318 | 0.0 | 0.0 | 0.06 | 0.20 | 0.20 | 1 | 1008.8 |
| 20260505075602 | 50 | 318 | 0.0 | 0.0 | 0.06 | 0.19 | 0.19 | 1 | 1008.9 |
| 20260505075037 | 50 | 318 | 0.0 | 0.9 | 0.08 | 0.19 | 0.19 | 1 | 1008.5 |
| 20260505074513 | 50 | 318 | 0.0 | 0.9 | 0.08 | 0.18 | 0.18 | 1 | 1008.1 |
| 20260505074054 | 50 | 318 | 0.0 | 3.5 | 0.08 | 0.18 | 0.18 | 1 | 1007.4 |
| 20260505073531 | 50 | 34 | 0.0 | 3.5 | 0.07 | 0.17 | 0.17 | 1 | 1006.8 |
| 20260505073006 | 51 | 354 | 0.0 | 0.9 | 0.06 | 0.16 | 0.16 | 1 | 1006.4 |
| 20260505072546 | 52 | 354 | 0.0 | 0.0 | 0.06 | 0.16 | 0.16 | 1 | 1006.4 |
| 20260505072022 | 52 | 354 | 0.0 | 0.9 | 0.06 | 0.16 | 0.16 | 1 | 1006.4 |
| 20260505071605 | 52 | 354 | 0.0 | 1.7 | 0.06 | 0.16 | 0.16 | 1 | 1006.3 |
| 20260505071038 | 52 | 351 | 0.0 | 7.0 | 0.05 | 0.15 | 0.15 | 1 | 1006.3 |
| 20260505070515 | 52 | 28 | 1.7 | 7.0 | 0.05 | 0.15 | 0.15 | 1 | 1005.9 |
| 20260505070055 | 53 | 19 | 0.0 | 4.3 | 0.04 | 0.14 | 0.14 | 1 | 1006.0 |
| 20260505065530 | 54 | 19 | 0.9 | 5.2 | 0.05 | 0.13 | 0.13 | 1 | 1006.1 |
| 20260505065005 | 55 | 34 | 0.0 | 5.2 | 0.07 | 0.11 | 0.11 | 1 | 1005.2 |
| 20260505064557 | 55 | 354 | 0.0 | 0.9 | 0.10 | 0.10 | 0.10 | 1 | 1004.9 |
| 20260505064022 | 55 | 323 | 0.0 | 1.7 | 0.10 | 0.10 | 0.10 | 1 | 1004.9 |
| 20260505063603 | 55 | 323 | 0.0 | 2.6 | 0.10 | 0.10 | 0.10 | 1 | 1004.8 |
| 20260505063046 | 56 | 15 | 0.0 | 2.6 | 0.10 | 0.10 | 0.10 | 1 | 1004.5 |
| 20260505062515 | 56 | 9 | 0.0 | 5.2 | 0.10 | 0.10 | 0.10 | 9 | 1004.4 |
| 20260505062054 | 56 | 347 | 0.9 | 5.2 | 0.10 | 0.10 | 0.10 | 62 | 1004.1 |
| 20260505061539 | 57 | 348 | 1.7 | 3.5 | 0.10 | 0.10 | 0.10 | 62 | 1004.1 |
| 20260505061009 | 57 | 10 | 1.7 | 6.1 | 0.10 | 0.10 | 0.10 | 78 | 1004.2 |
| 20260505060549 | 58 | 6 | 1.7 | 6.1 | 0.10 | 0.10 | 0.10 | 77 | 1004.0 |
| 20260505060028 | 59 | 12 | 1.7 | 6.1 | 0.09 | 0.09 | 0.09 | 76 | 1003.9 |
| 20260505055502 | 61 | 356 | 2.6 | 8.7 | 0.08 | 0.08 | 0.08 | 71 | 1003.5 |
| 20260505055043 | 63 | 24 | 2.6 | 8.7 | 0.04 | 0.04 | 0.04 | 65 | 1003.5 |
| 20260505054521 | 65 | 9 | 3.5 | 9.6 | 0.00 | 0.00 | 0.00 | 58 | 1003.7 |
| 20260505054100 | 67 | 34 | 2.6 | 7.0 | 0.00 | 0.00 | 0.00 | 56 | 1004.0 |
| 20260505053535 | 68 | 32 | 1.7 | 6.1 | 0.00 | 0.00 | 0.00 | 55 | 1003.7 |
| 20260505053011 | 69 | 24 | 0.9 | 10.4 | 0.00 | 0.00 | 0.00 | 56 | 1003.4 |
| 20260505052551 | 69 | 66 | 4.3 | 10.4 | 0.00 | 0.00 | 0.00 | 60 | 1003.0 |
| 20260505052027 | 69 | 21 | 0.0 | 3.5 | 0.00 | 0.00 | 0.00 | 68 | 1002.7 |
| 20260505051503 | 69 | 6 | 0.0 | 3.5 | 0.00 | 0.00 | 0.00 | 71 | 1002.5 |
| 20260505051042 | 69 | 357 | 0.0 | 3.5 | 0.00 | 0.00 | 0.00 | 71 | 1002.3 |
| 20260505050521 | 69 | 16 | 0.0 | 3.5 | 0.00 | 0.00 | 0.00 | 72 | 1002.3 |
| 20260505041546 | 70 | 157 | 0.0 | 2.6 | 0.00 | 0.00 | 0.00 | 70 | 1001.8 |
| 20260505041014 | 70 | 139 | 0.0 | 3.5 | 0.00 | 0.00 | 0.00 | 70 | 1002.0 |
| 20260505040555 | 70 | 171 | 0.0 | 3.5 | 0.00 | 0.00 | 0.00 | 70 | 1002.0 |
| 20260505040031 | 71 | 156 | 0.0 | 3.5 | 0.00 | 0.00 | 0.00 | 70 | 1002.1 |
| 20260505035507 | 71 | 164 | 0.9 | 3.5 | 0.00 | 0.00 | 0.00 | 70 | 1002.1 |
| 20260505035052 | 71 | 148 | 0.0 | 2.6 | 0.00 | 0.00 | 0.00 | 70 | 1002.2 |
| 20260505034523 | 71 | 153 | 0.0 | 2.6 | 0.00 | 0.00 | 0.00 | 70 | 1002.2 |
| 20260505034104 | 71 | 163 | 0.0 | 1.7 | 0.00 | 0.00 | 0.00 | 70 | 1002.1 |
| 20260505033540 | 71 | 158 | 0.0 | 1.7 | 0.00 | 0.00 | 0.00 | 70 | 1002.2 |
| 20260505033018 | 71 | 167 | 0.0 | 1.7 | 0.00 | 0.00 | 0.00 | 70 | 1002.2 |
| 20260505032602 | 71 | 199 | 0.0 | 1.7 | 0.00 | 0.00 | 0.00 | 71 | 1002.2 |
| 20260505032033 | 71 | 168 | 0.0 | 2.6 | 0.00 | 0.00 | 0.00 | 71 | 1002.1 |
| 20260505031510 | 71 | 154 | 0.0 | 2.6 | 0.00 | 0.00 | 0.00 | 71 | 1002.1 |
| 20260505031054 | 71 | 160 | 0.0 | 2.6 | 0.00 | 0.00 | 0.00 | 71 | 1002.1 |
| 20260505030527 | 71 | 160 | 0.0 | 1.7 | 0.00 | 0.00 | 0.00 | 70 | 1002.0 |
| 20260505030003 | 72 | 145 | 0.0 | 0.9 | 0.00 | 0.00 | 0.00 | 70 | 1002.0 |
| 20260505025543 | 72 | 160 | 0.0 | 0.0 | 0.00 | 0.00 | 0.00 | 70 | 1002.0 |
| 20260505025021 | 72 | 160 | 0.0 | 1.7 | 0.00 | 0.00 | 0.00 | 69 | 1001.9 |
| 20260505024601 | 72 | 163 | 0.0 | 1.7 | 0.00 | 0.00 | 0.00 | 69 | 1001.8 |
| 20260505024037 | 72 | 145 | 0.0 | 0.9 | 0.00 | 0.00 | 0.00 | 68 | 1001.8 |
| 20260505023513 | 72 | 117 | 0.0 | 0.9 | 0.00 | 0.00 | 0.00 | 67 | 1001.7 |
| 20260505023101 | 72 | 111 | 0.0 | 0.9 | 0.00 | 0.00 | 0.00 | 66 | 1001.6 |
| 20260505022532 | 72 | 165 | 0.0 | 0.0 | 0.00 | 0.00 | 0.00 | 66 | 1001.5 |
| 20260505022006 | 72 | 165 | 0.0 | 0.0 | 0.00 | 0.00 | 0.00 | 66 | 1001.4 |
| 20260505021548 | 72 | 165 | 0.0 | 0.0 | 0.00 | 0.00 | 0.00 | 65 | 1001.3 |
| 20260505021023 | 72 | 165 | 0.0 | 0.0 | 0.00 | 0.00 | 0.00 | 65 | 1001.3 |
| 20260505020604 | 72 | 165 | 0.0 | 0.0 | 0.00 | 0.00 | 0.00 | 65 | 1001.2 |
| 20260505020039 | 72 | 165 | 0.0 | 0.0 | 0.00 | 0.00 | 0.00 | 65 | 1001.1 |
| 20260505015515 | 72 | 165 | 0.0 | 0.0 | 0.00 | 0.00 | 0.00 | 65 | 1001.0 |
| 20260505015056 | 72 | 165 | 0.0 | 0.0 | 0.00 | 0.00 | 0.00 | 64 | 1000.9 |
| 20260505014537 | 72 | 165 | 0.0 | 0.0 | 0.00 | 0.00 | 0.00 | 64 | 1000.8 |
| 20260505014008 | 72 | 165 | 0.0 | 0.0 | 0.00 | 0.00 | 0.00 | 63 | 1000.8 |
| 20260505013548 | 73 | 165 | 0.0 | 0.0 | 0.00 | 0.00 | 0.00 | 63 | 1000.7 |
| 20260505013029 | 73 | 165 | 0.0 | 0.0 | 0.00 | 0.00 | 0.00 | 62 | 1000.6 |
| 20260505012502 | 73 | 165 | 0.0 | 0.0 | 0.00 | 0.00 | 0.00 | 61 | 1000.6 |
| 20260505012042 | 74 | 165 | 0.0 | 0.0 | 0.00 | 0.00 | 0.00 | 60 | 1000.5 |
| 20260505011517 | 74 | 165 | 0.0 | 0.0 | 0.00 | 0.00 | 0.00 | 60 | 1000.4 |
| 20260505011058 | 74 | 165 | 0.0 | 0.0 | 0.00 | 0.00 | 0.00 | 59 | 1000.3 |
| 20260505010532 | 75 | 165 | 0.0 | 0.0 | 0.00 | 0.00 | 0.00 | 58 | 1000.3 |
| 20260505010009 | 75 | 165 | 0.0 | 0.0 | 0.00 | 0.00 | 0.00 | 58 | 1000.2 |
| 20260505005550 | 75 | 165 | 0.0 | 0.0 | 0.00 | 0.00 | 0.00 | 57 | 1000.1 |
| 20260505005028 | 76 | 165 | 0.0 | 0.0 | 0.00 | 0.00 | 0.00 | 57 | 1000.1 |
| 20260505004504 | 76 | 165 | 0.0 | 0.0 | 0.00 | 0.00 | 0.00 | 57 | 1000.1 |
| 20260505004044 | 76 | 165 | 0.0 | 0.0 | 0.00 | 0.00 | 0.00 | 56 | 1000.0 |
| 20260505003525 | 77 | 165 | 0.0 | 0.0 | 0.00 | 0.00 | 0.00 | 56 | 1000.0 |
| 20260505003102 | 77 | 165 | 0.0 | 0.0 | 0.00 | 0.00 | 0.00 | 55 | 999.9 |
| 20260505002541 | 77 | 165 | 0.0 | 0.0 | 0.00 | 0.00 | 0.00 | 55 | 999.9 |
| 20260505002014 | 77 | 165 | 0.0 | 0.0 | 0.00 | 0.00 | 0.00 | 54 | 999.9 |
| 20260505001557 | 78 | 165 | 0.0 | 0.0 | 0.00 | 0.00 | 0.00 | 53 | 999.9 |
| 20260505001032 | 78 | 295 | 0.0 | 0.0 | 0.00 | 0.00 | 0.00 | 52 | 999.9 |
| 20260505000505 | 78 | 295 | 0.0 | 0.9 | 0.00 | 0.00 | 0.00 | 51 | 999.9 |
| 20260505000054 | 78 | 295 | 0.0 | 0.9 | 0.00 | 0.00 | 0.00 | 51 | 999.9 |
| 20260504235523 | 79 | 295 | 0.0 | 0.9 | 0.00 | 0.00 | 0.00 | 50 | 999.8 |
| 20260504235105 | 79 | 295 | 0.0 | 0.9 | 0.00 | 0.00 | 0.00 | 49 | 999.8 |
| 20260504234546 | 79 | 295 | 0.0 | 2.6 | 0.00 | 0.00 | 0.00 | 48 | 999.8 |
| 20260504234017 | 79 | 153 | 0.0 | 0.9 | 0.00 | 0.00 | 0.00 | 51 | 999.8 |
| 20260504233557 | 80 | 136 | 0.0 | 1.7 | 0.00 | 0.00 | 0.00 | 50 | 999.9 |
| 20260504233035 | 80 | 168 | 0.0 | 1.7 | 0.00 | 0.00 | 0.00 | 50 | 999.8 |
| 20260504232511 | 80 | 307 | 0.0 | 1.7 | 0.00 | 0.00 | 0.00 | 49 | 999.8 |
| 20260504232051 | 81 | 319 | 0.0 | 2.6 | 0.00 | 0.00 | 0.00 | 47 | 999.8 |
| 20260504231535 | 80 | 117 | 0.0 | 2.6 | 0.00 | 0.00 | 0.00 | 47 | 999.9 |
| 20260504231003 | 80 | 117 | 0.0 | 0.9 | 0.00 | 0.00 | 0.00 | 48 | 999.9 |
| 20260504230545 | 80 | 117 | 0.0 | 0.9 | 0.00 | 0.00 | 0.00 | 48 | 1000.0 |
| 20260504230021 | 80 | 117 | 0.0 | 0.9 | 0.00 | 0.00 | 0.00 | 48 | 1000.0 |
| 20260504225602 | 80 | 117 | 0.0 | 0.9 | 0.00 | 0.00 | 0.00 | 49 | 1000.0 |
| 20260504225037 | 80 | 117 | 0.0 | 0.9 | 0.00 | 0.00 | 0.00 | 49 | 1000.0 |
| 20260504224517 | 80 | 117 | 0.0 | 0.0 | 0.00 | 0.00 | 0.00 | 49 | 1000.0 |
| 20260504224058 | 80 | 117 | 0.0 | 0.0 | 0.00 | 0.00 | 0.00 | 49 | 1000.0 |
| 20260504223534 | 80 | 117 | 0.0 | 0.9 | 0.00 | 0.00 | 0.00 | 48 | 1000.0 |
| 20260504223008 | 80 | 117 | 0.0 | 1.7 | 0.00 | 0.00 | 0.00 | 48 | 1000.0 |
| 20260504222548 | 80 | 117 | 0.0 | 1.7 | 0.00 | 0.00 | 0.00 | 47 | 1000.0 |
| 20260504222025 | 80 | 117 | 0.0 | 1.7 | 0.00 | 0.00 | 0.00 | 47 | 1000.1 |
| 20260504221610 | 80 | 117 | 0.0 | 1.7 | 0.00 | 0.00 | 0.00 | 46 | 1000.2 |
| 20260504221040 | 80 | 334 | 0.0 | 1.7 | 0.00 | 0.00 | 0.00 | 46 | 1000.2 |
| 20260504220516 | 80 | 298 | 0.0 | 1.7 | 0.00 | 0.00 | 0.00 | 46 | 1000.1 |
| 20260504220057 | 80 | 283 | 0.0 | 1.7 | 0.00 | 0.00 | 0.00 | 45 | 1000.2 |
| 20260504215534 | 80 | 275 | 0.0 | 1.7 | 0.00 | 0.00 | 0.00 | 46 | 1000.2 |
| 20260504215009 | 80 | 275 | 0.0 | 1.7 | 0.00 | 0.00 | 0.00 | 46 | 1000.2 |
| 20260504214549 | 80 | 280 | 0.0 | 1.7 | 0.00 | 0.00 | 0.00 | 45 | 1000.3 |
| 20260504214028 | 80 | 264 | 0.0 | 1.7 | 0.00 | 0.00 | 0.00 | 45 | 1000.3 |
| 20260504213503 | 81 | 131 | 0.0 | 2.6 | 0.00 | 0.00 | 0.00 | 45 | 1000.3 |
| 20260504213043 | 81 | 118 | 0.0 | 3.5 | 0.00 | 0.00 | 0.00 | 45 | 1000.3 |
| 20260504212519 | 81 | 176 | 0.0 | 5.2 | 0.00 | 0.00 | 0.00 | 45 | 1000.4 |
| 20260504212100 | 81 | 210 | 0.0 | 5.2 | 0.00 | 0.00 | 0.00 | 46 | 1000.3 |
| 20260504211544 | 81 | 203 | 0.0 | 4.3 | 0.00 | 0.00 | 0.00 | 45 | 1000.4 |
| 20260504211012 | 81 | 218 | 0.9 | 4.3 | 0.00 | 0.00 | 0.00 | 46 | 1000.3 |
| 20260504210553 | 81 | 126 | 0.9 | 4.3 | 0.00 | 0.00 | 0.00 | 45 | 1000.4 |
| 20260504210047 | 81 | 129 | 0.9 | 3.5 | 0.00 | 0.00 | 0.00 | 44 | 1000.4 |
| 20260504205506 | 81 | 146 | 0.0 | 1.7 | 0.00 | 0.00 | 0.00 | 46 | 1000.4 |
| 20260504205047 | 81 | 224 | 0.0 | 2.6 | 0.00 | 0.00 | 0.00 | 46 | 1000.4 |
| 20260504204524 | 81 | 274 | 0.0 | 1.7 | 0.00 | 0.00 | 0.00 | 44 | 1000.4 |
| 20260504204108 | 81 | 174 | 0.0 | 1.7 | 0.00 | 0.00 | 0.00 | 45 | 1000.5 |
| 20260504203541 | 81 | 269 | 0.0 | 1.7 | 0.00 | 0.00 | 0.00 | 45 | 1000.6 |
| 20260504203023 | 81 | 181 | 0.0 | 1.7 | 0.00 | 0.00 | 0.00 | 46 | 1000.7 |
| 20260504202559 | 81 | 283 | 0.0 | 1.7 | 0.00 | 0.00 | 0.00 | 46 | 1000.8 |
| 20260504202036 | 80 | 172 | 0.0 | 2.6 | 0.00 | 0.00 | 0.00 | 47 | 1000.9 |
| 20260504201511 | 80 | 321 | 0.0 | 3.5 | 0.00 | 0.00 | 0.00 | 47 | 1000.8 |
| 20260504201054 | 80 | 278 | 0.0 | 3.5 | 0.00 | 0.00 | 0.00 | 45 | 1000.7 |
| 20260504200529 | 80 | 167 | 0.0 | 3.5 | 0.00 | 0.00 | 0.00 | 47 | 1000.8 |
| 20260504200012 | 80 | 295 | 0.0 | 2.6 | 0.00 | 0.00 | 0.00 | 45 | 1000.9 |
| 20260504195554 | 80 | 274 | 0.0 | 2.6 | 0.00 | 0.00 | 0.00 | 45 | 1000.9 |